| time (UTC) | temp C | wind direction | speed KPH | gust KPH | rain 1hr cm | rain 24hr cm | rain mn cm | humidity % | barometer mb |
| 20260831080108 | 16 | 0 | 0.0 | 1.6 | 0.00 | 0.00 | 0.00 | 56 | 1019.7 |
| 20260831075545 | 16 | 0 | 0.0 | 1.6 | 0.00 | 0.00 | 0.00 | 56 | 1019.8 |
| 20260831075047 | 16 | 0 | 0.0 | 1.6 | 0.00 | 0.00 | 0.00 | 56 | 1019.8 |
| 20260831074602 | 16 | 0 | 0.0 | 1.6 | 0.00 | 0.00 | 0.00 | 56 | 1019.8 |
| 20260831074047 | 16 | 0 | 0.0 | 3.2 | 0.00 | 0.00 | 0.00 | 56 | 1019.9 |
| 20260831073546 | 16 | 0 | 0.0 | 3.2 | 0.00 | 0.00 | 0.00 | 58 | 1019.9 |
| 20260831073108 | 16 | 148 | 0.0 | 3.2 | 0.00 | 0.00 | 0.00 | 58 | 1019.8 |
| 20260831072545 | 16 | 0 | 0.0 | 1.6 | 0.00 | 0.00 | 0.00 | 56 | 1019.9 |
| 20260831072044 | 16 | 0 | 0.0 | 1.6 | 0.00 | 0.00 | 0.00 | 55 | 1019.8 |
| 20260831071603 | 16 | 0 | 0.0 | 1.6 | 0.00 | 0.00 | 0.00 | 57 | 1019.8 |
| 20260831071046 | 16 | 0 | 0.0 | 1.6 | 0.00 | 0.00 | 0.00 | 58 | 1019.9 |
| 20260831070547 | 16 | 0 | 0.0 | 1.6 | 0.00 | 0.00 | 0.00 | 57 | 1020.0 |
| 20260831070109 | 16 | 0 | 0.0 | 1.6 | 0.00 | 0.00 | 0.00 | 57 | 1019.9 |
| 20260831065544 | 16 | 0 | 0.0 | 1.6 | 0.00 | 0.00 | 0.00 | 57 | 1020.0 |
| 20260831065048 | 16 | 0 | 0.0 | 0.0 | 0.00 | 0.00 | 0.00 | 57 | 1020.0 |
| 20260831064605 | 16 | 0 | 0.0 | 1.6 | 0.00 | 0.00 | 0.00 | 56 | 1019.9 |
| 20260831064050 | 16 | 0 | 0.0 | 1.6 | 0.00 | 0.00 | 0.00 | 56 | 1019.9 |
| 20260831063547 | 16 | 0 | 0.0 | 1.6 | 0.00 | 0.00 | 0.00 | 57 | 1019.9 |
| 20260831063105 | 16 | 0 | 0.0 | 1.6 | 0.00 | 0.00 | 0.00 | 57 | 1019.8 |
| 20260831062545 | 16 | 0 | 0.0 | 1.6 | 0.00 | 0.00 | 0.00 | 57 | 1019.8 |
| 20260831062048 | 17 | 0 | 0.0 | 1.6 | 0.00 | 0.00 | 0.00 | 57 | 1019.7 |
| 20260831061608 | 17 | 0 | 0.0 | 0.0 | 0.00 | 0.00 | 0.00 | 56 | 1019.8 |
| 20260831061049 | 16 | 0 | 0.0 | 1.6 | 0.00 | 0.00 | 0.00 | 56 | 1019.7 |
| 20260831060547 | 17 | 0 | 0.0 | 1.6 | 0.00 | 0.00 | 0.00 | 56 | 1019.6 |
| 20260831060105 | 17 | 0 | 0.0 | 1.6 | 0.00 | 0.00 | 0.00 | 57 | 1019.7 |
| 20260831055547 | 17 | 0 | 0.0 | 1.6 | 0.00 | 0.00 | 0.00 | 57 | 1019.7 |
| 20260831055047 | 17 | 0 | 0.0 | 1.6 | 0.00 | 0.00 | 0.00 | 57 | 1019.7 |
| 20260831054611 | 17 | 0 | 0.0 | 0.0 | 0.00 | 0.00 | 0.00 | 58 | 1019.7 |
| 20260831054048 | 17 | 0 | 0.0 | 0.0 | 0.00 | 0.00 | 0.00 | 59 | 1019.7 |
| 20260831053545 | 17 | 0 | 0.0 | 1.6 | 0.00 | 0.00 | 0.00 | 60 | 1019.7 |
| 20260831053102 | 17 | 0 | 0.0 | 1.6 | 0.00 | 0.00 | 0.00 | 60 | 1019.7 |
| 20260831052549 | 17 | 0 | 0.0 | 0.0 | 0.00 | 0.00 | 0.00 | 62 | 1019.7 |
| 20260831052044 | 17 | 0 | 0.0 | 1.6 | 0.00 | 0.00 | 0.00 | 62 | 1019.7 |
| 20260831051611 | 17 | 0 | 0.0 | 1.6 | 0.00 | 0.00 | 0.00 | 63 | 1019.7 |
| 20260831051043 | 17 | 0 | 0.0 | 3.2 | 0.00 | 0.00 | 0.00 | 63 | 1019.7 |
| 20260831050543 | 17 | 0 | 0.0 | 3.2 | 0.00 | 0.00 | 0.00 | 63 | 1019.7 |
| 20260831050107 | 17 | 148 | 0.0 | 1.6 | 0.00 | 0.00 | 0.00 | 63 | 1019.7 |
| 20260831045543 | 17 | 0 | 0.0 | 0.0 | 0.00 | 0.00 | 0.00 | 63 | 1019.7 |
| 20260831045044 | 17 | 0 | 0.0 | 1.6 | 0.00 | 0.00 | 0.00 | 64 | 1019.8 |
| 20260831044613 | 17 | 0 | 0.0 | 1.6 | 0.00 | 0.00 | 0.00 | 64 | 1019.8 |
| 20260831044047 | 17 | 0 | 0.0 | 1.6 | 0.00 | 0.00 | 0.00 | 65 | 1019.8 |
| 20260831043543 | 17 | 0 | 0.0 | 3.2 | 0.00 | 0.00 | 0.00 | 63 | 1019.9 |
| 20260831043101 | 17 | 0 | 0.0 | 3.2 | 0.00 | 0.00 | 0.00 | 65 | 1019.7 |
| 20260831042549 | 17 | 148 | 0.0 | 3.2 | 0.00 | 0.00 | 0.00 | 68 | 1019.8 |
| 20260831042048 | 17 | 0 | 0.0 | 1.6 | 0.00 | 0.00 | 0.00 | 67 | 1019.8 |
| 20260831041606 | 17 | 0 | 0.0 | 1.6 | 0.00 | 0.00 | 0.00 | 69 | 1019.7 |
| 20260831041047 | 17 | 0 | 0.0 | 1.6 | 0.00 | 0.00 | 0.00 | 69 | 1019.7 |
| 20260831040545 | 18 | 0 | 0.0 | 1.6 | 0.00 | 0.00 | 0.00 | 70 | 1019.7 |
| 20260831040107 | 18 | 0 | 0.0 | 1.6 | 0.00 | 0.00 | 0.00 | 71 | 1019.7 |
| 20260831035543 | 18 | 0 | 0.0 | 1.6 | 0.00 | 0.00 | 0.00 | 70 | 1019.6 |
| 20260831035048 | 18 | 0 | 0.0 | 1.6 | 0.00 | 0.00 | 0.00 | 71 | 1019.6 |
| 20260831034601 | 18 | 0 | 0.0 | 1.6 | 0.00 | 0.00 | 0.00 | 70 | 1019.5 |
| 20260831034047 | 18 | 0 | 0.0 | 1.6 | 0.00 | 0.00 | 0.00 | 69 | 1019.4 |
| 20260831033544 | 18 | 0 | 0.0 | 0.0 | 0.00 | 0.00 | 0.00 | 69 | 1019.3 |
| 20260831033106 | 18 | 0 | 0.0 | 0.0 | 0.00 | 0.00 | 0.00 | 69 | 1019.3 |
| 20260831032547 | 19 | 0 | 0.0 | 3.2 | 0.00 | 0.00 | 0.00 | 69 | 1019.3 |
| 20260831032050 | 19 | 0 | 0.0 | 3.2 | 0.00 | 0.00 | 0.00 | 68 | 1019.3 |
| 20260831031558 | 19 | 0 | 0.0 | 1.6 | 0.00 | 0.00 | 0.00 | 68 | 1019.2 |
| 20260831031046 | 20 | 0 | 0.0 | 1.6 | 0.00 | 0.00 | 0.00 | 68 | 1019.1 |
| 20260831030546 | 20 | 0 | 0.0 | 1.6 | 0.00 | 0.00 | 0.00 | 68 | 1019.1 |
| 20260831030110 | 20 | 148 | 0.0 | 1.6 | 0.00 | 0.00 | 0.00 | 68 | 1019.1 |
| 20260831025547 | 20 | 0 | 0.0 | 3.2 | 0.00 | 0.00 | 0.00 | 68 | 1019.1 |
| 20260831025049 | 20 | 0 | 0.0 | 4.8 | 0.00 | 0.00 | 0.00 | 67 | 1019.1 |
| 20260831024603 | 20 | 190 | 1.6 | 4.8 | 0.00 | 0.00 | 0.00 | 67 | 1019.1 |
| 20260831024046 | 20 | 0 | 0.0 | 6.4 | 0.00 | 0.00 | 0.00 | 66 | 1019.1 |
| 20260831023549 | 21 | 173 | 1.6 | 6.4 | 0.00 | 0.00 | 0.00 | 66 | 1019.2 |
| 20260831023100 | 21 | 186 | 0.0 | 4.8 | 0.00 | 0.00 | 0.00 | 65 | 1019.2 |
| 20260831022548 | 21 | 186 | 0.0 | 3.2 | 0.00 | 0.00 | 0.00 | 64 | 1019.1 |
| 20260831022046 | 21 | 186 | 0.0 | 4.8 | 0.00 | 0.00 | 0.00 | 64 | 1019.1 |
| 20260831021606 | 21 | 0 | 0.0 | 9.7 | 0.00 | 0.00 | 0.00 | 63 | 1019.1 |
| 20260831021048 | 22 | 0 | 0.0 | 9.7 | 0.00 | 0.00 | 0.00 | 62 | 1018.9 |
| 20260831020550 | 22 | 0 | 0.0 | 4.8 | 0.00 | 0.00 | 0.00 | 61 | 1019.0 |
| 20260831020100 | 22 | 195 | 0.0 | 4.8 | 0.00 | 0.00 | 0.00 | 61 | 1018.9 |
| 20260831015551 | 22 | 0 | 0.0 | 8.0 | 0.00 | 0.00 | 0.00 | 59 | 1018.8 |
| 20260831015046 | 22 | 304 | 1.6 | 8.0 | 0.00 | 0.00 | 0.00 | 58 | 1018.9 |
| 20260831014603 | 22 | 180 | 1.6 | 6.4 | 0.00 | 0.00 | 0.00 | 57 | 1018.8 |
| 20260831014046 | 23 | 321 | 1.6 | 6.4 | 0.00 | 0.00 | 0.00 | 55 | 1018.9 |
| 20260831013548 | 23 | 0 | 0.0 | 6.4 | 0.00 | 0.00 | 0.00 | 54 | 1018.8 |
| 20260831013111 | 23 | 0 | 0.0 | 4.8 | 0.00 | 0.00 | 0.00 | 53 | 1019.0 |
| 20260831012549 | 23 | 221 | 0.0 | 8.0 | 0.00 | 0.00 | 0.00 | 51 | 1018.9 |
| 20260831012048 | 23 | 0 | 0.0 | 8.0 | 0.00 | 0.00 | 0.00 | 51 | 1018.8 |
| 20260831011603 | 23 | 139 | 1.6 | 6.4 | 0.00 | 0.00 | 0.00 | 51 | 1018.9 |
| 20260831011049 | 23 | 190 | 1.6 | 6.4 | 0.00 | 0.00 | 0.00 | 51 | 1018.8 |
| 20260831010550 | 24 | 146 | 1.6 | 8.0 | 0.00 | 0.00 | 0.00 | 52 | 1018.8 |
| 20260831010106 | 24 | 0 | 1.6 | 8.0 | 0.00 | 0.00 | 0.00 | 50 | 1018.8 |
| 20260831005547 | 24 | 148 | 0.0 | 17.7 | 0.00 | 0.00 | 0.00 | 49 | 1018.9 |
| 20260831005044 | 25 | 138 | 3.2 | 17.7 | 0.00 | 0.00 | 0.00 | 47 | 1018.8 |
| 20260831004604 | 25 | 0 | 0.0 | 14.5 | 0.00 | 0.00 | 0.00 | 48 | 1018.9 |
| 20260831004045 | 25 | 0 | 3.2 | 14.5 | 0.00 | 0.00 | 0.00 | 47 | 1018.8 |
| 20260831003548 | 25 | 149 | 3.2 | 11.3 | 0.00 | 0.00 | 0.00 | 44 | 1018.9 |
| 20260831003106 | 25 | 82 | 0.0 | 16.1 | 0.00 | 0.00 | 0.00 | 45 | 1018.9 |
| 20260831002547 | 26 | 0 | 1.6 | 16.1 | 0.00 | 0.00 | 0.00 | 44 | 1018.9 |
| 20260831002047 | 26 | 152 | 1.6 | 16.1 | 0.00 | 0.00 | 0.00 | 42 | 1018.9 |
| 20260831001612 | 26 | 219 | 3.2 | 9.7 | 0.00 | 0.00 | 0.00 | 42 | 1019.0 |
| 20260831001047 | 26 | 221 | 1.6 | 16.1 | 0.00 | 0.00 | 0.00 | 40 | 1018.9 |
| 20260831000547 | 26 | 116 | 3.2 | 16.1 | 0.00 | 0.00 | 0.00 | 37 | 1019.0 |
| 20260831000106 | 26 | 175 | 3.2 | 14.5 | 0.00 | 0.00 | 0.00 | 38 | 1019.0 |
| 20260830235548 | 26 | 134 | 4.8 | 16.1 | 0.00 | 0.00 | 0.00 | 37 | 1018.9 |
| 20260830235048 | 26 | 263 | 4.8 | 17.7 | 0.00 | 0.00 | 0.00 | 37 | 1019.1 |
| 20260830234607 | 26 | 178 | 4.8 | 17.7 | 0.00 | 0.00 | 0.00 | 37 | 1019.1 |
| 20260830234046 | 27 | 102 | 4.8 | 14.5 | 0.00 | 0.00 | 0.00 | 35 | 1019.0 |
| 20260830233545 | 27 | 275 | 4.8 | 14.5 | 0.00 | 0.00 | 0.00 | 37 | 1019.1 |
| 20260830233107 | 27 | 195 | 3.2 | 29.0 | 0.00 | 0.00 | 0.00 | 36 | 1019.2 |
| 20260830232545 | 27 | 274 | 4.8 | 32.2 | 0.00 | 0.00 | 0.00 | 35 | 1019.0 |
| 20260830232049 | 27 | 130 | 6.4 | 32.2 | 0.00 | 0.00 | 0.00 | 34 | 1019.2 |
| 20260830231607 | 28 | 130 | 1.6 | 14.5 | 0.00 | 0.00 | 0.00 | 34 | 1019.1 |
| 20260830231043 | 27 | 140 | 3.2 | 16.1 | 0.00 | 0.00 | 0.00 | 35 | 1019.1 |
| 20260830230544 | 27 | 78 | 4.8 | 16.1 | 0.00 | 0.00 | 0.00 | 35 | 1019.1 |
| 20260830225544 | 28 | 132 | 3.2 | 11.3 | 0.00 | 0.00 | 0.00 | 34 | 1019.2 |
| 20260830225046 | 28 | 214 | 3.2 | 11.3 | 0.00 | 0.00 | 0.00 | 34 | 1019.3 |
| 20260830224601 | 28 | 34 | 3.2 | 19.3 | 0.00 | 0.00 | 0.00 | 34 | 1019.3 |
| 20260830224047 | 28 | 144 | 4.8 | 29.0 | 0.00 | 0.00 | 0.00 | 36 | 1019.2 |
| 20260830223544 | 28 | 179 | 4.8 | 29.0 | 0.00 | 0.00 | 0.00 | 34 | 1019.3 |
| 20260830223113 | 28 | 152 | 4.8 | 14.5 | 0.00 | 0.00 | 0.00 | 35 | 1019.4 |
| 20260830222547 | 28 | 202 | 4.8 | 14.5 | 0.00 | 0.00 | 0.00 | 33 | 1019.6 |
| 20260830222044 | 28 | 221 | 1.6 | 14.5 | 0.00 | 0.00 | 0.00 | 34 | 1019.6 |
| 20260830221609 | 28 | 173 | 4.8 | 14.5 | 0.00 | 0.00 | 0.00 | 33 | 1019.7 |
| 20260830221046 | 28 | 140 | 3.2 | 12.9 | 0.00 | 0.00 | 0.00 | 33 | 1019.8 |
| 20260830220546 | 28 | 321 | 3.2 | 16.1 | 0.00 | 0.00 | 0.00 | 33 | 1019.8 |
| 20260830220105 | 28 | 146 | 4.8 | 16.1 | 0.00 | 0.00 | 0.00 | 32 | 1019.9 |
| 20260830215547 | 28 | 194 | 4.8 | 16.1 | 0.00 | 0.00 | 0.00 | 32 | 1020.1 |
| 20260830215045 | 28 | 148 | 3.2 | 16.1 | 0.00 | 0.00 | 0.00 | 33 | 1020.0 |
| 20260830214620 | 29 | 140 | 3.2 | 14.5 | 0.00 | 0.00 | 0.00 | 33 | 1020.1 |
| 20260830214046 | 29 | 134 | 3.2 | 14.5 | 0.00 | 0.00 | 0.00 | 34 | 1020.0 |
| 20260830213545 | 29 | 115 | 4.8 | 12.9 | 0.00 | 0.00 | 0.00 | 32 | 1020.1 |
| 20260830213106 | 29 | 175 | 3.2 | 14.5 | 0.00 | 0.00 | 0.00 | 35 | 1020.1 |
| 20260830212547 | 28 | 144 | 3.2 | 14.5 | 0.00 | 0.00 | 0.00 | 36 | 1020.2 |
| 20260830212047 | 28 | 178 | 4.8 | 14.5 | 0.00 | 0.00 | 0.00 | 34 | 1020.2 |
| 20260830211610 | 29 | 132 | 1.6 | 9.7 | 0.00 | 0.00 | 0.00 | 33 | 1020.3 |
| 20260830211047 | 29 | 154 | 3.2 | 19.3 | 0.00 | 0.00 | 0.00 | 33 | 1020.3 |
| 20260830210545 | 29 | 140 | 6.4 | 19.3 | 0.00 | 0.00 | 0.00 | 34 | 1020.4 |
| 20260830210118 | 29 | 155 | 3.2 | 12.9 | 0.00 | 0.00 | 0.00 | 34 | 1020.5 |
| 20260830205546 | 29 | 198 | 1.6 | 12.9 | 0.00 | 0.00 | 0.00 | 33 | 1020.3 |
| 20260830205048 | 29 | 156 | 1.6 | 14.5 | 0.00 | 0.00 | 0.00 | 33 | 1020.5 |
| 20260830204605 | 28 | 48 | 4.8 | 14.5 | 0.00 | 0.00 | 0.00 | 32 | 1020.5 |
| 20260830204045 | 29 | 148 | 4.8 | 14.5 | 0.00 | 0.00 | 0.00 | 32 | 1020.6 |
| 20260830203545 | 29 | 163 | 1.6 | 16.1 | 0.00 | 0.00 | 0.00 | 32 | 1020.6 |
| 20260830203105 | 28 | 210 | 6.4 | 17.7 | 0.00 | 0.00 | 0.00 | 31 | 1020.5 |
| 20260830202545 | 28 | 101 | 6.4 | 17.7 | 0.00 | 0.00 | 0.00 | 32 | 1020.5 |
| 20260830202045 | 28 | 224 | 3.2 | 14.5 | 0.00 | 0.00 | 0.00 | 35 | 1020.5 |
| 20260830201605 | 28 | 269 | 6.4 | 14.5 | 0.00 | 0.00 | 0.00 | 34 | 1020.6 |
| 20260830201047 | 28 | 225 | 4.8 | 12.9 | 0.00 | 0.00 | 0.00 | 34 | 1020.6 |
| 20260830200550 | 28 | 223 | 1.6 | 12.9 | 0.00 | 0.00 | 0.00 | 34 | 1020.6 |
| 20260830195545 | 28 | 0 | 3.2 | 14.5 | 0.00 | 0.00 | 0.00 | 35 | 1020.6 |
| 20260830195045 | 28 | 80 | 3.2 | 14.5 | 0.00 | 0.00 | 0.00 | 35 | 1020.7 |
| 20260830194606 | 28 | 175 | 4.8 | 14.5 | 0.00 | 0.00 | 0.00 | 35 | 1020.8 |
| 20260830194045 | 28 | 222 | 4.8 | 14.5 | 0.00 | 0.00 | 0.00 | 36 | 1020.7 |
| 20260830193545 | 28 | 166 | 1.6 | 17.7 | 0.00 | 0.00 | 0.00 | 37 | 1020.7 |
| 20260830193103 | 28 | 175 | 3.2 | 19.3 | 0.00 | 0.00 | 0.00 | 38 | 1020.7 |
| 20260830192544 | 28 | 155 | 8.0 | 19.3 | 0.00 | 0.00 | 0.00 | 37 | 1020.8 |
| 20260830192044 | 28 | 89 | 3.2 | 17.7 | 0.00 | 0.00 | 0.00 | 35 | 1020.9 |
| 20260830191611 | 28 | 175 | 3.2 | 17.7 | 0.00 | 0.00 | 0.00 | 34 | 1020.8 |
| 20260830191049 | 28 | 180 | 3.2 | 14.5 | 0.00 | 0.00 | 0.00 | 34 | 1021.0 |
| 20260830190547 | 28 | 128 | 1.6 | 11.3 | 0.00 | 0.00 | 0.00 | 35 | 1020.9 |
| 20260830190140 | 28 | 192 | 3.2 | 14.5 | 0.00 | 0.00 | 0.00 | 34 | 1020.9 |
| 20260830185548 | 28 | 120 | 1.6 | 16.1 | 0.00 | 0.00 | 0.00 | 32 | 1021.0 |
| 20260830185050 | 28 | 0 | 3.2 | 16.1 | 0.00 | 0.00 | 0.00 | 33 | 1021.1 |
| 20260830184628 | 28 | 169 | 3.2 | 16.1 | 0.00 | 0.00 | 0.00 | 31 | 1021.1 |
| 20260830184047 | 27 | 157 | 1.6 | 11.3 | 0.00 | 0.00 | 0.00 | 34 | 1021.2 |
| 20260830183547 | 27 | 294 | 3.2 | 9.7 | 0.00 | 0.00 | 0.00 | 33 | 1021.1 |
| 20260830183119 | 27 | 154 | 1.6 | 9.7 | 0.00 | 0.00 | 0.00 | 31 | 1021.2 |
| 20260830182544 | 27 | 184 | 3.2 | 9.7 | 0.00 | 0.00 | 0.00 | 34 | 1021.3 |
| 20260830182044 | 27 | 114 | 3.2 | 11.3 | 0.00 | 0.00 | 0.00 | 33 | 1021.2 |
| 20260830181606 | 27 | 188 | 3.2 | 11.3 | 0.00 | 0.00 | 0.00 | 33 | 1021.1 |
| 20260830181047 | 26 | 169 | 1.6 | 14.5 | 0.00 | 0.00 | 0.00 | 33 | 1021.1 |
| 20260830180544 | 26 | 146 | 3.2 | 14.5 | 0.00 | 0.00 | 0.00 | 35 | 1021.2 |
| 20260830180112 | 27 | 137 | 1.6 | 11.3 | 0.00 | 0.00 | 0.00 | 34 | 1021.2 |
| 20260830175548 | 27 | 135 | 3.2 | 14.5 | 0.00 | 0.00 | 0.00 | 34 | 1021.1 |
| 20260830175047 | 26 | 178 | 3.2 | 14.5 | 0.00 | 0.00 | 0.00 | 33 | 1021.1 |
| 20260830174610 | 26 | 179 | 1.6 | 11.3 | 0.00 | 0.00 | 0.00 | 35 | 1021.0 |
| 20260830174044 | 26 | 152 | 1.6 | 11.3 | 0.00 | 0.00 | 0.00 | 35 | 1021.0 |
| 20260830173544 | 26 | 205 | 3.2 | 11.3 | 0.00 | 0.00 | 0.00 | 35 | 1020.9 |
| 20260830173101 | 26 | 175 | 3.2 | 9.7 | 0.00 | 0.00 | 0.00 | 35 | 1020.8 |
| 20260830172544 | 26 | 200 | 1.6 | 9.7 | 0.00 | 0.00 | 0.00 | 36 | 1020.8 |
| 20260830172044 | 26 | 193 | 3.2 | 9.7 | 0.00 | 0.00 | 0.00 | 36 | 1020.8 |
| 20260830171607 | 26 | 133 | 1.6 | 6.4 | 0.00 | 0.00 | 0.00 | 38 | 1020.8 |
| 20260830171046 | 26 | 128 | 0.0 | 9.7 | 0.00 | 0.00 | 0.00 | 40 | 1020.8 |
| 20260830170546 | 26 | 121 | 1.6 | 11.3 | 0.00 | 0.00 | 0.00 | 38 | 1020.8 |
| 20260830165547 | 25 | 98 | 0.0 | 9.7 | 0.00 | 0.00 | 0.00 | 39 | 1020.6 |
| 20260830165047 | 25 | 146 | 1.6 | 12.9 | 0.00 | 0.00 | 0.00 | 39 | 1020.6 |
| 20260830164609 | 25 | 110 | 1.6 | 12.9 | 0.00 | 0.00 | 0.00 | 40 | 1020.5 |
| 20260830164049 | 25 | 136 | 1.6 | 14.5 | 0.00 | 0.00 | 0.00 | 41 | 1020.6 |
| 20260830163544 | 25 | 152 | 1.6 | 14.5 | 0.00 | 0.00 | 0.00 | 42 | 1020.4 |
| 20260830163108 | 25 | 227 | 1.6 | 14.5 | 0.00 | 0.00 | 0.00 | 41 | 1020.5 |
| 20260830162544 | 25 | 195 | 1.6 | 8.0 | 0.00 | 0.00 | 0.00 | 43 | 1020.3 |
| 20260830162046 | 24 | 150 | 0.0 | 8.0 | 0.00 | 0.00 | 0.00 | 43 | 1020.3 |
| 20260830161605 | 24 | 155 | 1.6 | 9.7 | 0.00 | 0.00 | 0.00 | 45 | 1020.3 |
| 20260830161045 | 23 | 40 | 0.0 | 9.7 | 0.00 | 0.00 | 0.00 | 44 | 1020.3 |
| 20260830160544 | 23 | 0 | 3.2 | 8.0 | 0.00 | 0.00 | 0.00 | 47 | 1020.3 |
| 20260830160106 | 23 | 246 | 1.6 | 8.0 | 0.00 | 0.00 | 0.00 | 45 | 1020.3 |
| 20260830155544 | 22 | 155 | 1.6 | 8.0 | 0.00 | 0.00 | 0.00 | 48 | 1020.4 |
| 20260830155047 | 22 | 169 | 1.6 | 6.4 | 0.00 | 0.00 | 0.00 | 49 | 1020.5 |
| 20260830154603 | 21 | 167 | 0.0 | 8.0 | 0.00 | 0.00 | 0.00 | 50 | 1020.3 |
| 20260830154046 | 21 | 0 | 1.6 | 8.0 | 0.00 | 0.00 | 0.00 | 50 | 1020.3 |
| 20260830153547 | 20 | 0 | 0.0 | 6.4 | 0.00 | 0.00 | 0.00 | 51 | 1020.3 |
| 20260830153115 | 20 | 74 | 0.0 | 4.8 | 0.00 | 0.00 | 0.00 | 53 | 1020.3 |
| 20260830152547 | 20 | 0 | 1.6 | 4.8 | 0.00 | 0.00 | 0.00 | 54 | 1020.2 |
| 20260830152045 | 20 | 58 | 1.6 | 4.8 | 0.00 | 0.00 | 0.00 | 54 | 1020.2 |
| 20260830151611 | 19 | 62 | 1.6 | 6.4 | 0.00 | 0.00 | 0.00 | 54 | 1020.2 |
| 20260830151045 | 19 | 62 | 1.6 | 6.4 | 0.00 | 0.00 | 0.00 | 55 | 1020.4 |
| 20260830150545 | 18 | 0 | 1.6 | 6.4 | 0.00 | 0.00 | 0.00 | 56 | 1020.4 |
| 20260830150106 | 18 | 20 | 0.0 | 3.2 | 0.00 | 0.00 | 0.00 | 55 | 1020.4 |
| 20260830145547 | 18 | 19 | 0.0 | 4.8 | 0.00 | 0.00 | 0.00 | 56 | 1020.4 |
| 20260830145047 | 18 | 0 | 0.0 | 4.8 | 0.00 | 0.00 | 0.00 | 56 | 1020.5 |
| 20260830144600 | 18 | 43 | 0.0 | 4.8 | 0.00 | 0.00 | 0.00 | 56 | 1020.4 |
| 20260830144047 | 18 | 33 | 0.0 | 4.8 | 0.00 | 0.00 | 0.00 | 56 | 1020.4 |
| 20260830143547 | 18 | 33 | 0.0 | 4.8 | 0.00 | 0.00 | 0.00 | 56 | 1020.3 |
| 20260830143206 | 18 | 37 | 0.0 | 4.8 | 0.00 | 0.00 | 0.00 | 56 | 1020.3 |
| 20260830143108 | 18 | 37 | 0.0 | 4.8 | 0.00 | 0.00 | 0.00 | 56 | 1020.3 |
| 20260830142548 | 18 | 35 | 0.0 | 4.8 | 0.00 | 0.00 | 0.00 | 56 | 1020.3 |
| 20260830142048 | 18 | 0 | 0.0 | 3.2 | 0.00 | 0.00 | 0.00 | 57 | 1020.3 |
| 20260830141609 | 18 | 0 | 0.0 | 1.6 | 0.00 | 0.00 | 0.00 | 57 | 1020.3 |
| 20260830141047 | 18 | 9 | 0.0 | 1.6 | 0.00 | 0.00 | 0.00 | 57 | 1020.3 |
| 20260830140547 | 18 | 0 | 0.0 | 1.6 | 0.00 | 0.00 | 0.00 | 57 | 1020.2 |
| 20260830140101 | 18 | 0 | 0.0 | 1.6 | 0.00 | 0.00 | 0.00 | 57 | 1020.2 |
| 20260830135548 | 18 | 0 | 0.0 | 1.6 | 0.00 | 0.00 | 0.00 | 57 | 1020.1 |
| 20260830135048 | 18 | 0 | 0.0 | 1.6 | 0.00 | 0.00 | 0.00 | 57 | 1020.0 |
| 20260830134603 | 18 | 0 | 0.0 | 1.6 | 0.00 | 0.00 | 0.00 | 57 | 1020.1 |
| 20260830134045 | 18 | 9 | 0.0 | 3.2 | 0.00 | 0.00 | 0.00 | 57 | 1020.0 |
| 20260830133544 | 18 | 9 | 0.0 | 3.2 | 0.00 | 0.00 | 0.00 | 57 | 1020.0 |
| 20260830133105 | 18 | 9 | 0.0 | 1.6 | 0.00 | 0.00 | 0.00 | 56 | 1019.9 |
| 20260830132547 | 18 | 0 | 0.0 | 3.2 | 0.00 | 0.00 | 0.00 | 56 | 1019.9 |
| 20260830132044 | 18 | 0 | 0.0 | 3.2 | 0.00 | 0.00 | 0.00 | 56 | 1019.9 |
| 20260830131607 | 18 | 0 | 0.0 | 1.6 | 0.00 | 0.00 | 0.00 | 56 | 1019.8 |
| 20260830131045 | 18 | 0 | 0.0 | 3.2 | 0.00 | 0.00 | 0.00 | 57 | 1019.8 |
| 20260830130545 | 18 | 0 | 0.0 | 3.2 | 0.00 | 0.00 | 0.00 | 57 | 1019.7 |
| 20260830130106 | 18 | 9 | 0.0 | 3.2 | 0.00 | 0.00 | 0.00 | 57 | 1019.8 |
| 20260830125546 | 18 | 0 | 0.0 | 1.6 | 0.00 | 0.00 | 0.00 | 57 | 1019.8 |
| 20260830125048 | 18 | 0 | 0.0 | 0.0 | 0.00 | 0.00 | 0.00 | 57 | 1019.8 |
| 20260830124603 | 18 | 0 | 0.0 | 0.0 | 0.00 | 0.00 | 0.00 | 57 | 1019.8 |
| 20260830124044 | 18 | 0 | 0.0 | 0.0 | 0.00 | 0.00 | 0.00 | 58 | 1019.7 |
| 20260830123544 | 18 | 0 | 0.0 | 0.0 | 0.00 | 0.00 | 0.00 | 58 | 1019.8 |
| 20260830123100 | 18 | 0 | 0.0 | 0.0 | 0.00 | 0.00 | 0.00 | 58 | 1019.8 |
| 20260830122543 | 18 | 0 | 0.0 | 0.0 | 0.00 | 0.00 | 0.00 | 57 | 1019.7 |
| 20260830122045 | 18 | 0 | 0.0 | 1.6 | 0.00 | 0.00 | 0.00 | 57 | 1019.7 |
| 20260830121604 | 18 | 0 | 0.0 | 1.6 | 0.00 | 0.00 | 0.00 | 57 | 1019.7 |
| 20260830121044 | 18 | 0 | 0.0 | 3.2 | 0.00 | 0.00 | 0.00 | 56 | 1019.7 |
| 20260830120544 | 18 | 0 | 0.0 | 3.2 | 0.00 | 0.00 | 0.00 | 56 | 1019.8 |
| 20260830120104 | 18 | 9 | 0.0 | 4.8 | 0.00 | 0.00 | 0.00 | 57 | 1019.7 |
| 20260830115547 | 18 | 0 | 0.0 | 4.8 | 0.00 | 0.00 | 0.00 | 57 | 1019.7 |
| 20260830115051 | 18 | 42 | 0.0 | 6.4 | 0.00 | 0.00 | 0.00 | 58 | 1019.6 |
| 20260830114601 | 18 | 0 | 0.0 | 6.4 | 0.00 | 0.00 | 0.00 | 58 | 1019.6 |
| 20260830114045 | 18 | 0 | 0.0 | 1.6 | 0.00 | 0.00 | 0.00 | 58 | 1019.7 |
| 20260830113548 | 18 | 0 | 0.0 | 3.2 | 0.00 | 0.00 | 0.00 | 58 | 1019.7 |
| 20260830113106 | 17 | 0 | 0.0 | 3.2 | 0.00 | 0.00 | 0.00 | 58 | 1019.7 |
| 20260830112547 | 17 | 30 | 0.0 | 3.2 | 0.00 | 0.00 | 0.00 | 58 | 1019.6 |
| 20260830112047 | 17 | 0 | 0.0 | 3.2 | 0.00 | 0.00 | 0.00 | 59 | 1019.6 |
| 20260830111601 | 17 | 0 | 0.0 | 3.2 | 0.00 | 0.00 | 0.00 | 59 | 1019.6 |
| 20260830111045 | 17 | 0 | 0.0 | 1.6 | 0.00 | 0.00 | 0.00 | 59 | 1019.7 |
| 20260830110545 | 17 | 0 | 0.0 | 1.6 | 0.00 | 0.00 | 0.00 | 59 | 1019.6 |
| 20260830105548 | 18 | 0 | 0.0 | 3.2 | 0.00 | 0.00 | 0.00 | 58 | 1019.6 |
| 20260830105045 | 18 | 0 | 0.0 | 3.2 | 0.00 | 0.00 | 0.00 | 58 | 1019.6 |
| 20260830104614 | 18 | 0 | 0.0 | 1.6 | 0.00 | 0.00 | 0.00 | 58 | 1019.6 |
| 20260830104044 | 18 | 0 | 0.0 | 1.6 | 0.00 | 0.00 | 0.00 | 58 | 1019.6 |
| 20260830103546 | 18 | 0 | 0.0 | 6.4 | 0.00 | 0.00 | 0.00 | 58 | 1019.6 |
| 20260830103104 | 18 | 0 | 0.0 | 6.4 | 0.00 | 0.00 | 0.00 | 58 | 1019.6 |
| 20260830102545 | 18 | 30 | 0.0 | 4.8 | 0.00 | 0.00 | 0.00 | 59 | 1019.6 |
| 20260830102047 | 18 | 0 | 0.0 | 1.6 | 0.00 | 0.00 | 0.00 | 58 | 1019.5 |
| 20260830101603 | 18 | 0 | 0.0 | 3.2 | 0.00 | 0.00 | 0.00 | 59 | 1019.6 |
| 20260830101044 | 18 | 0 | 0.0 | 3.2 | 0.00 | 0.00 | 0.00 | 59 | 1019.4 |
| 20260830100551 | 18 | 0 | 0.0 | 3.2 | 0.00 | 0.00 | 0.00 | 59 | 1019.3 |
| 20260830100106 | 18 | 0 | 0.0 | 1.6 | 0.00 | 0.00 | 0.00 | 59 | 1019.4 |
| 20260830095548 | 18 | 0 | 0.0 | 3.2 | 0.00 | 0.00 | 0.00 | 59 | 1019.3 |
| 20260830095044 | 18 | 0 | 0.0 | 3.2 | 0.00 | 0.00 | 0.00 | 59 | 1019.3 |
| 20260830094605 | 18 | 49 | 0.0 | 4.8 | 0.00 | 0.00 | 0.00 | 61 | 1019.4 |
| 20260830094046 | 18 | 0 | 0.0 | 4.8 | 0.00 | 0.00 | 0.00 | 61 | 1019.3 |
| 20260830093543 | 18 | 0 | 0.0 | 3.2 | 0.00 | 0.00 | 0.00 | 61 | 1019.3 |
| 20260830093106 | 18 | 0 | 0.0 | 4.8 | 0.00 | 0.00 | 0.00 | 62 | 1019.3 |
| 20260830092548 | 18 | 0 | 0.0 | 4.8 | 0.00 | 0.00 | 0.00 | 62 | 1019.4 |
| 20260830092044 | 18 | 51 | 0.0 | 3.2 | 0.00 | 0.00 | 0.00 | 62 | 1019.3 |
| 20260830091600 | 18 | 5 | 0.0 | 1.6 | 0.00 | 0.00 | 0.00 | 61 | 1019.4 |
| 20260830091047 | 18 | 0 | 0.0 | 1.6 | 0.00 | 0.00 | 0.00 | 61 | 1019.4 |
| 20260830090546 | 18 | 0 | 0.0 | 1.6 | 0.00 | 0.00 | 0.00 | 60 | 1019.4 |
| 20260830090104 | 18 | 5 | 0.0 | 3.2 | 0.00 | 0.00 | 0.00 | 60 | 1019.5 |
| 20260830085546 | 18 | 0 | 0.0 | 3.2 | 0.00 | 0.00 | 0.00 | 60 | 1019.5 |
| 20260830085047 | 18 | 5 | 0.0 | 3.2 | 0.00 | 0.00 | 0.00 | 60 | 1019.4 |
| 20260830084605 | 18 | 0 | 0.0 | 3.2 | 0.00 | 0.00 | 0.00 | 60 | 1019.4 |
| 20260830084049 | 18 | 0 | 0.0 | 3.2 | 0.00 | 0.00 | 0.00 | 59 | 1019.4 |
| 20260830083551 | 18 | 0 | 0.0 | 3.2 | 0.00 | 0.00 | 0.00 | 59 | 1019.5 |
| 20260830083108 | 18 | 5 | 0.0 | 3.2 | 0.00 | 0.00 | 0.00 | 58 | 1019.6 |
| 20260830082547 | 18 | 0 | 0.0 | 3.2 | 0.00 | 0.00 | 0.00 | 58 | 1019.5 |
| 20260830082050 | 18 | 0 | 0.0 | 1.6 | 0.00 | 0.00 | 0.00 | 58 | 1019.5 |
| 20260830081609 | 18 | 5 | 0.0 | 1.6 | 0.00 | 0.00 | 0.00 | 58 | 1019.6 |
| 20260830081047 | 18 | 0 | 0.0 | 1.6 | 0.00 | 0.00 | 0.00 | 58 | 1019.6 |
| 20260830080547 | 18 | 0 | 0.0 | 1.6 | 0.00 | 0.00 | 0.00 | 59 | 1019.6 |